Location: Ferintosh
(52.7647°N, 112.9692°W)
Time: 15:17:02
(UTC+00:00)

Transit 2A Rocket - Pass Details

Date: 23 May 2024
Orbit: 583 x 910 km, 66.7° (Epoch: 22 June)

Event Time Altitude Azimuth Distance (km) Brightness Sun altitude
Rises 16:16:00 0° 308° (NW) 3,268 7.8 41.3°
Reaches altitude 10° 16:18:55 10° 324° (NW) 2,398 7.3 41.7°
Maximum altitude 16:23:10 22° 14° (NNE) 1,785 7.1 42.3°
Drops below altitude 10° 16:27:38 10° 63° (ENE) 2,537 8.2 42.9°
Sets 16:30:49 0° 79° (E) 3,510 9.0 43.3°
